Dewpoint
71 65 63 56 43 42 38 38 40 44 50 54 54 50 51 52 44 39 63 68 70 71 73 72 72 74 73 71 70 70 69 67 65 66 69 70 68 70 72 71 72 72 73 73 73 73 72 72 73
70 62 60 51 41 36 37 38 44 49 53 51 51 53 53 53 58 62 63 69 71 72 73 73 72 73 72 70 70 70 69 70 65 64 66 69 69 68 69 70 69 69 71 72 73 73 72 72 72
58 60 51 48 43 37 33 35 46 50 47 46 50 52 55 54 59 62 64 69 71 71 73 73 72 72 72 70 70 70 71 70 65 65 65 65 68 68 68 68 68 68 70 70 72 72 72 72 72
53 51 41 40 34 35 30 36 47 39 41 46 51 53 52 51 52 58 66 69 70 70 71 72 72 73 71 70 69 70 70 68 65 65 65 64 66 67 66 66 66 66 67 69 69 71 72 71 71
54 43 35 33 29 26 25 31 32 36 40 39 48 51 53 46 58 63 68 69 69 69 70 72 73 72 71 70 69 70 70 69 67 65 65 65 64 62 63 63 63 63 64 64 65 68 71 72 72
49 40 32 28 27 26 24 27 28 30 30 35 49 50 48 45 55 67 67 68 69 69 71 72 72 72 71 70 70 69 70 70 68 67 65 65 65 64 64 62 61 62 62 62 62 64 68 70 71
44 39 34 30 24 25 22 25 24 25 29 34 42 46 43 51 55 60 50 56 69 70 70 70 71 71 72 71 70 70 70 70 70 69 68 67 66 65 65 65 64 63 64 64 64 62 64 68 69
47 38 28 26 24 23 25 29 30 28 31 36 38 47 49 48 47 43 47 53 55 57 58 67 70 70 70 71 72 72 72 72 71 71 71 71 70 70 70 69 68 67 67 67 65 64 64 63 66
43 34 29 29 27 26 27 28 34 36 35 38 39 41 44 46 40 43 49 49 55 62 65 67 68 69 68 69 70 69 68 66 65 65 67 65 66 66 67 69 69 69 69 69 67 66 66 66 65
38 34 30 33 31 26 29 29 31 32 36 38 38 39 43 39 35 42 49 48 47 49 58 62 63 63 63 63 65 64 62 60 57 58 59 57 58 57 60 61 64 67 66 65 65 65 63 61 61
39 35 33 35 33 32 31 32 35 31 31 37 39 39 39 34 30 33 32 37 40 40 40 42 50 55 59 59 58 55 48 48 44 46 50 52 51 52 52 51 51 51 61 63 62 61 60 58 57
32 34 34 37 34 32 30 33 33 32 32 33 39 36 36 29 26 28 29 31 31 30 31 33 34 34 35 41 44 48 47 44 40 42 45 45 43 44 47 46 47 45 49 54 56 58 60 59 59
31 34 32 34 33 33 32 32 29 32 33 35 34 33 34 29 25 23 24 25 26 27 28 29 30 30 31 33 34 35 36 38 40 39 40 41 39 39 43 42 44 42 43 48 51 53 56 57 57
32 31 29 32 33 33 30 32 32 30 32 32 31 31 31 28 23 22 24 25 25 26 27 28 29 29 30 31 32 33 33 33 33 33 35 38 37 35 37 36 36 39 43 43 43 45 51 52 52
27 28 26 29 30 30 30 24 28 30 31 30 29 28 28 27 23 22 24 24 25 26 27 28 29 29 29 30 32 33 33 33 31 32 31 34 36 34 35 34 35 36 39 42 38 39 44 44 46
20 20 20 22 30 32 25 19 26 31 30 29 27 26 24 24 22 21 24 25 25 26 27 29 30 29 28 28 30 30 32 32 31 31 32 33 36 33 33 33 34 36 38 40 39 40 41 41 43
19 18 17 17 30 31 25 20 28 31 30 30 27 24 23 21 22 21 23 25 25 26 27 28 28 28 29 29 29 30 30 30 30 30 31 31 35 33 32 33 34 34 34 34 37 37 40 41 40
15 14 15 14 24 30 27 26 27 30 29 29 29 25 23 20 21 22 23 25 25 25 25 26 27 27 27 29 29 29 29 28 29 30 31 30 34 32 32 33 33 33 33 33 33 34 36 38 41
14 17 16 17 24 27 26 27 27 29 30 29 29 28 25 21 20 21 23 24 25 24 24 25 26 27 28 28 27 27 27 27 28 30 30 30 31 32 31 32 32 33 32 31 31 33 36 36 40
22 19 18 21 29 27 26 26 27 29 29 30 29 29 27 23 19 19 21 22 23 23 23 24 24 26 27 29 29 28 27 28 29 32 29 31 30 31 30 30 31 30 31 31 31 31 32 35 37
23 20 20 21 26 26 25 24 23 26 29 29 30 29 27 24 20 18 19 20 21 22 23 23 24 25 27 29 30 29 28 28 28 28 29 31 30 30 30 29 30 30 31 32 31 32 32 32 34
21 27 27 27 24 19 24 16 19 24 26 27 28 28 26 24 20 19 19 20 20 21 23 24 26 26 28 29 28 26 26 26 27 28 30 29 28 28 30 30 30 30 31 31 31 33 33 33 32
25 29 27 27 23 21 21 18 15 22 23 23 27 27 27 25 21 20 20 20 21 22 24 25 26 28 30 28 28 28 27 28 29 27 25 25 28 29 30 30 30 30 31 31 31 31 31 32 33
28 22 24 28 24 15 18 14 14 18 23 21 22 27 27 26 23 21 21 22 22 23 25 28 28 29 30 29 28 26 25 23 22 22 24 27 29 31 30 31 31 31 32 32 32 32 32 31 32
22 21 18 9 17 11 21 17 17 18 17 17 18 21 27 27 24 23 22 22 23 24 25 30 30 30 28 26 25 23 21 20 21 24 26 27 29 30 30 31 31 32 32 33 33 33 32 32 32
23 20 15 6 13 18 20 17 17 17 16 20 24 26 27 27 25 23 23 23 22 24 26 29 29 28 25 20 19 21 22 25 26 27 28 28 29 30 31 31 32 32 32 32 32 33 33 32 33
23 22 21 15 12 10 13 10 16 15 14 17 21 24 26 26 25 24 23 22 22 24 26 27 27 23 19 20 22 22 24 24 26 26 28 30 30 31 30 32 32 31 31 32 32 32 31 32 32
20 20 15 15 5 2 9 10 14 13 14 15 16 17 20 21 21 21 22 22 24 25 24 22 20 19 20 22 23 24 24 25 27 28 29 29 30 31 31 31 31 30 31 31 31 31 32 32 32
18 17 16 15 15 11 7 5 12 14 15 14 16 19 21 22 23 23 23 24 25 24 21 19 19 21 22 24 24 25 26 27 27 28 29 29 30 31 30 30 29 30 30 30 30 30 30 31 31
18 17 14 15 6 13 14 16 18 14 14 17 17 19 20 22 23 24 24 23 24 22 19 19 21 22 23 24 25 26 27 28 28 28 28 29 29 29 29 29 29 30 30 30 30 30 30 30 30
Lifted_Index
-1 -1 -1 -1 1 2 3 3 3 2 2 2 3 3 3 3 3 3 1 -1 -1 -2 -3 -3 -3 -3 -3 -2 -2 -1 -1 0 2 2 0 -1 -1 -1 -2 -2 -2 -3 -3 -3 -4 -4 -4 -4 -4
-1 -1 -1 -0 1 1 2 3 3 2 2 2 2 2 2 2 2 1 0 -1 -2 -2 -3 -3 -3 -3 -3 -2 -2 -2 -1 -0 1 2 1 0 -0 -1 -1 -1 -1 -2 -2 -3 -4 -4 -4 -4 -4
1 -0 -0 -0 0 1 2 2 2 2 2 2 2 1 1 1 1 0 -0 -1 -2 -3 -3 -3 -3 -3 -2 -2 -2 -2 -2 -1 1 2 2 1 0 0 0 -0 -0 -0 -1 -2 -3 -3 -4 -4 -4
1 0 -0 0 0 1 2 2 2 2 3 2 1 1 1 1 1 0 -1 -1 -2 -2 -3 -3 -3 -3 -2 -2 -2 -2 -2 -1 1 1 2 2 1 1 1 1 1 1 1 -0 -1 -2 -3 -4 -4
0 0 0 0 1 2 2 3 4 4 4 3 1 1 1 1 0 -0 -1 -2 -1 -2 -2 -3 -3 -3 -2 -2 -2 -2 -2 -1 0 1 1 2 2 2 2 3 3 3 2 2 1 0 -2 -3 -3
0 0 0 0 1 2 3 4 5 6 5 3 2 1 1 1 -0 -1 -2 -2 -2 -2 -2 -3 -3 -3 -2 -2 -2 -2 -2 -2 -1 -0 0 1 1 2 2 2 3 3 3 3 3 2 0 -1 -2
0 0 1 1 1 2 4 6 6 7 6 4 2 1 1 0 -0 -1 -2 -2 -2 -1 -2 -2 -2 -2 -2 -2 -2 -2 -2 -2 -2 -1 -1 -1 -0 0 1 1 1 2 2 2 3 3 2 1 -0
0 1 1 1 1 2 4 5 6 7 6 5 3 2 1 0 -0 -1 -1 -1 -0 -0 -1 -2 -2 -2 -2 -2 -2 -2 -2 -2 -2 -1 -1 -1 -1 -1 -0 -0 -0 0 0 1 1 2 2 2 1
0 0 1 1 2 2 3 4 5 6 6 6 5 4 2 0 0 0 1 1 1 1 0 -1 -2 -2 -1 -1 -1 -1 -1 -1 -1 -1 -0 -0 -0 -0 -0 -0 -0 -0 -0 0 1 2 2 2 3
-1 0 1 2 2 3 3 3 3 4 5 6 7 5 3 1 1 1 1 2 2 2 1 -0 -1 -1 -1 -1 -0 -0 -0 0 1 1 1 1 1 1 1 1 1 1 1 1 2 2 2 3 3
-1 -0 1 2 3 3 2 2 3 3 4 6 7 6 4 2 2 1 2 2 2 2 2 1 0 -0 -0 1 1 2 3 3 4 4 5 5 4 4 3 3 3 3 2 2 2 3 3 3 3
-0 -0 1 1 2 2 2 2 3 4 6 7 8 6 5 4 3 2 2 3 3 4 4 5 4 4 4 5 6 7 8 9 9 10 10 10 10 9 8 8 8 7 6 6 5 4 4 3 3
-0 -0 0 1 1 2 2 3 4 5 7 8 8 7 7 6 5 4 4 4 5 6 8 10 10 10 10 11 12 13 13 14 14 15 16 16 15 15 14 14 14 13 12 11 10 8 7 7 6
0 0 0 1 1 2 3 3 5 7 8 9 9 9 8 8 8 7 7 7 8 10 11 13 13 14 14 15 15 16 16 17 17 17 18 18 18 18 18 18 18 17 17 16 16 15 14 12 12
0 0 0 1 1 2 3 4 6 7 8 9 9 9 10 10 10 10 10 11 11 13 13 14 14 15 15 15 16 17 17 18 18 18 18 18 18 18 19 19 19 19 19 19 19 18 18 17 16
0 0 1 1 2 3 4 5 7 8 8 9 9 9 10 10 11 11 12 13 13 14 14 14 14 15 15 16 17 17 17 18 17 17 17 18 18 19 19 19 19 19 20 20 19 19 19 18 18
1 1 1 1 2 4 5 6 7 8 8 9 9 9 9 10 10 11 12 13 13 14 14 14 14 14 15 16 16 17 17 17 17 17 17 17 18 18 19 19 19 20 20 20 20 19 19 18 18
1 1 1 2 3 5 6 6 6 7 8 8 8 8 8 9 10 11 12 12 13 13 13 14 14 14 14 14 15 15 16 16 16 16 16 17 17 18 18 19 19 19 19 19 19 19 19 19 18
1 1 2 3 5 6 6 6 6 7 7 7 8 8 8 8 9 10 11 12 12 13 13 13 13 13 13 13 14 14 15 15 15 15 16 16 17 17 17 18 19 19 19 19 19 19 18 18 19
1 2 3 5 6 7 6 5 5 6 7 7 8 8 8 8 9 9 10 11 11 12 12 13 13 12 12 13 13 14 14 14 14 15 15 15 16 16 16 17 18 18 18 18 19 19 18 18 18
2 3 4 5 6 6 5 4 4 5 6 7 8 8 8 8 8 8 9 10 11 11 12 12 12 12 12 12 13 13 13 14 14 14 14 15 15 16 16 17 18 18 18 18 18 18 18 18 18
4 5 5 5 5 5 4 3 3 5 6 7 7 7 7 7 7 8 9 9 10 11 11 12 12 12 12 12 13 13 13 13 13 13 14 14 15 15 15 16 17 18 18 18 18 18 18 18 17
5 5 5 5 4 4 3 3 3 4 5 6 7 7 7 7 7 7 8 9 9 10 11 11 11 11 12 12 12 13 13 13 13 13 13 14 14 14 15 16 17 17 17 17 17 17 17 17 17
6 5 5 4 3 3 3 3 3 4 5 6 6 6 6 6 6 7 7 8 9 10 10 11 11 11 12 12 12 12 12 12 12 13 13 13 13 13 14 16 16 17 17 17 17 17 17 17 17
5 4 3 2 2 2 3 3 4 5 6 6 6 6 6 6 6 7 7 8 8 9 10 10 11 11 11 12 12 12 12 12 12 12 12 12 12 13 15 16 16 17 17 17 17 17 17 17 17
5 4 3 2 1 2 3 4 4 6 6 6 6 6 6 7 7 7 7 7 8 9 9 10 10 11 11 11 11 11 11 11 11 12 12 12 13 14 16 17 17 17 18 18 17 17 17 16 16
5 5 4 3 2 2 3 3 4 6 6 7 7 7 7 7 7 7 7 7 8 8 9 9 10 10 10 10 10 10 11 11 11 11 12 13 15 16 17 17 17 18 17 17 17 16 15 15 15
5 5 4 3 2 1 2 3 4 5 6 6 6 7 7 8 8 8 8 8 8 9 9 9 9 9 9 9 10 10 10 11 11 12 13 14 16 16 17 17 17 17 17 16 15 14 13 13 13
5 5 4 4 2 2 2 3 4 5 6 6 6 7 7 8 8 8 8 8 9 9 9 9 8 8 9 9 10 10 10 11 12 13 14 15 16 16 17 17 16 16 14 13 13 12 12 11 11
5 5 4 3 3 2 2 3 5 6 6 6 7 7 8 8 8 8 8 9 9 8 8 8 8 8 9 9 9 9 10 11 12 14 15 15 16 16 16 16 15 14 13 12 11 11 11 11 11